{"data":{"norad_id":43877,"intl_designator":"2018-111B","name":"KANOPUS-V 6","alt_names":[],"object_type":"PAYLOAD","status":"ACTIVE","operator":null,"country":"CIS","launch_date":"2018-12-27","launch_site_code":"VOSTO","launch_vehicle":null,"mission":null,"orbit_class":"UNKNOWN","rcs_meters":null,"size_class":null,"mass_kg":null,"dimensions":null,"purposes":[],"wikipedia_slug":null,"has_3d_model":false,"image_url":null,"decayed_at":null,"tle_current":{"epoch":"2026-05-25T05:20:06.961920Z","epoch_age_seconds":52517,"freshness":"FRESH","line1":"1 43877U 18111B   26145.22230280  .00016308  00000+0  39804-3 0  9992","line2":"2 43877  97.3717  62.0556 0002542  78.7166 281.4366 15.40934944411983","mean_motion":15.40934944,"eccentricity":0.0002542,"inclination_deg":97.3717,"raan_deg":62.0556,"arg_perigee_deg":78.7166,"mean_anomaly_deg":281.4366,"bstar":0.00039804,"rev_number":41198,"period_min":93.449759550654,"perigee_km":441.61466343468,"apogee_km":445.08270675698,"semimajor_km":6821.4856850958,"source":"CELESTRAK","updated_at":"2026-05-25T13:37:55.925267Z"}}}